IZ1MHY Ortonovo IT current weather conditions

sailwx.info

Wind from 045 at 2 knots gusting 3

Air temperature 20.0° C
Dewpoint 9.6° C

Last reported at 2020-Jul-14 05:04 UTC.
Time now 2020-Jul-14 05:31 UTC

Location: N 44°05' E 010°03'.
View on Google Maps.

See reports from other nearby stations

  
Tides and Currents Weather Stations Pressure Air Temp Water Temp Dewpoint Dewpoint Depression Visibility Wind Speed Wind Dir Waves Ship Positions
date/time (UTC)wind fromknots sea level pressurealtimeterstation pressurevisibilityair tempwater tempwave heightnotes
2020-Jul-14 05:04 045 2 gusting 3 20.0
2020-Jul-14 04:55 088 4 gusting 6 20.0
2020-Jul-14 04:46 088 4 gusting 6 20.0
2020-Jul-14 04:37 088 4 gusting 6 20.0
2020-Jul-14 04:28 054 4 gusting 7 20.0
2020-Jul-14 04:19 051 3 gusting 9 20.0
2020-Jul-14 04:10 045 3 gusting 5 20.0
2020-Jul-14 04:01 045 3 gusting 5 20.0
2020-Jul-14 03:52 045 3 gusting 5 20.0
2020-Jul-14 03:43 045 3 gusting 5 20.0
2020-Jul-14 03:34 048 3 gusting 5 20.0
2020-Jul-14 03:25 055 3 gusting 4 20.0
2020-Jul-14 03:16 053 3 gusting 6 20.0
2020-Jul-14 03:07 063 3 gusting 6 20.0
2020-Jul-14 02:58 060 5 gusting 9 20.0
2020-Jul-14 02:49 045 5 gusting 6 20.0
2020-Jul-14 02:40 089 3 gusting 5 20.6
2020-Jul-14 02:31 089 3 gusting 5 20.6
2020-Jul-14 02:22 072 3 gusting 6 20.6
2020-Jul-14 02:13 043 3 gusting 6 20.6
2020-Jul-14 02:04 048 4 gusting 6 20.6
2020-Jul-14 01:55 046 3 gusting 6 20.6
2020-Jul-14 01:46 057 3 gusting 8 20.6
2020-Jul-14 01:37 064 5 gusting 6 20.6
2020-Jul-14 01:28 082 5 gusting 8 20.6
2020-Jul-14 01:19 059 3 gusting 7 20.6
2020-Jul-14 01:10 074 3 gusting 6 20.6
2020-Jul-14 00:52 057 3 gusting 5 20.6
2020-Jul-14 00:43 048 3 gusting 6 20.6
2020-Jul-14 00:34 039 4 gusting 6 20.6
2020-Jul-14 00:25 055 3 gusting 6 20.6
2020-Jul-14 00:16 066 4 gusting 7 20.6
2020-Jul-14 00:07 047 3 gusting 7 20.6
2020-Jul-13 23:58 049 3 gusting 6 20.6
2020-Jul-13 23:52 058 4 gusting 7 20.6
2020-Jul-13 23:40 083 5 gusting 9 20.6
2020-Jul-13 23:33 072 6 gusting 9 20.6
2020-Jul-13 23:22 071 6 gusting 7 21.1
2020-Jul-13 23:13 070 5 gusting 7 21.1
2020-Jul-13 23:04 060 6 gusting 7 21.1
2020-Jul-13 22:55 055 3 gusting 6 21.7
2020-Jul-13 22:46 037 6 gusting 6 21.7
2020-Jul-13 22:37 048 2 gusting 6 21.7
2020-Jul-13 22:28 063 4 gusting 6 21.7
2020-Jul-13 22:19 048 4 gusting 6 21.7
2020-Jul-13 22:10 084 4 gusting 6 21.7
2020-Jul-13 21:58 088 3 gusting 3 21.7
2020-Jul-13 21:43 048 3 gusting 3 21.7
2020-Jul-13 21:34 067 3 gusting 7 22.2
2020-Jul-13 21:25 067 3 gusting 7 22.2
2020-Jul-13 21:16 067 3 gusting 7 22.2
2020-Jul-13 21:07 067 3 gusting 7 22.2
2020-Jul-13 20:58 067 3 gusting 7 22.2
2020-Jul-13 20:49 067 3 gusting 8 22.2
2020-Jul-13 20:40 055 3 gusting 5 22.2
2020-Jul-13 20:31 085 2 gusting 5 22.2
2020-Jul-13 20:22 057 3 gusting 4 22.2
2020-Jul-13 20:13 076 0 gusting 6 22.8
2020-Jul-13 20:04 094 5 gusting 7 22.8
2020-Jul-13 19:55 072 2 gusting 9 22.8
2020-Jul-13 19:46 163 5 gusting 7 22.8
2020-Jul-13 19:37 123 2 gusting 6 22.8
2020-Jul-13 19:28 047 1 gusting 13 23.3
2020-Jul-13 19:19 065 6 gusting 14 23.3
2020-Jul-13 19:10 076 10 gusting 16 23.3
2020-Jul-13 19:01 065 5 gusting 12 23.9
2020-Jul-13 18:52 067 6 gusting 9 25.0
2020-Jul-13 18:43 082 4 gusting 10 26.1
2020-Jul-13 18:34 061 5 gusting 6 27.2
2020-Jul-13 18:25 061 1 gusting 2 27.8
2020-Jul-13 18:16 075 1 gusting 2 28.3
2020-Jul-13 18:07 027 0 gusting 1 28.9
2020-Jul-13 17:58 201 0 gusting 4 28.9
2020-Jul-13 17:49 248 3 gusting 6 29.4
2020-Jul-13 17:40 277 4 gusting 6 29.4
2020-Jul-13 17:31 334 0 gusting 4 29.4
2020-Jul-13 17:22 224 1 gusting 6 29.4
2020-Jul-13 17:13 245 2 gusting 6 29.4
2020-Jul-13 17:04 265 6 gusting 6 29.4
2020-Jul-13 16:55 236 5 gusting 6 28.9
2020-Jul-13 16:46 233 5 gusting 10 28.9
2020-Jul-13 16:37 247 6 gusting 8 28.9
2020-Jul-13 16:28 247 5 gusting 8 30.0
2020-Jul-13 16:19 247 5 gusting 8 30.0
2020-Jul-13 16:10 247 5 gusting 8 30.0
2020-Jul-13 16:01 247 5 gusting 8 30.0
2020-Jul-13 15:52 247 5 gusting 8 30.0
2020-Jul-13 15:43 247 5 gusting 8 30.0
2020-Jul-13 15:34 247 6 gusting 8 30.0
2020-Jul-13 15:25 203 6 gusting 10 29.4
2020-Jul-13 15:16 203 6 gusting 10 29.4
2020-Jul-13 15:07 221 6 gusting 10 29.4
2020-Jul-13 14:58 243 5 gusting 9 29.4
2020-Jul-13 14:49 238 7 gusting 11 29.4
2020-Jul-13 14:40 236 9 gusting 13 28.9
2020-Jul-13 14:31 234 7 gusting 14 28.9
2020-Jul-13 14:22 235 9 gusting 13 28.9
2020-Jul-13 14:13 244 6 gusting 12 29.4
2020-Jul-13 14:04 235 6 gusting 11 28.9
2020-Jul-13 13:55 242 6 gusting 11 28.9
2020-Jul-13 13:46 217 5 gusting 9 28.3
2020-Jul-13 13:37 221 4 gusting 9 27.8
2020-Jul-13 13:28 212 6 gusting 13 27.8
2020-Jul-13 13:19 268 6 gusting 10 27.2
2020-Jul-13 13:10 238 6 gusting 9 26.7
2020-Jul-13 13:01 234 7 gusting 14 26.7
2020-Jul-13 12:52 235 8 gusting 11 26.7
2020-Jul-13 12:43 250 6 gusting 13 26.1
2020-Jul-13 12:34 217 9 gusting 14 26.1
2020-Jul-13 12:25 237 9 gusting 14 26.7
2020-Jul-13 12:16 249 7 gusting 13 26.1
2020-Jul-13 12:07 241 9 gusting 14 26.1
2020-Jul-13 11:58 233 12 gusting 14 26.1
2020-Jul-13 11:49 224 8 gusting 13 26.1
2020-Jul-13 11:40 221 6 gusting 13 26.1
2020-Jul-13 11:31 232 10 gusting 14 26.1
2020-Jul-13 11:22 209 8 gusting 13 25.6
2020-Jul-13 11:13 241 8 gusting 14 25.6
2020-Jul-13 11:04 231 8 gusting 14 25.6
2020-Jul-13 10:55 246 9 gusting 14 25.6
2020-Jul-13 10:46 251 11 gusting 13 25.6
2020-Jul-13 10:37 217 9 gusting 15 25.6
2020-Jul-13 10:28 219 8 gusting 13 26.1
2020-Jul-13 10:19 232 6 gusting 13 26.1
2020-Jul-13 10:10 261 6 gusting 11 25.6
2020-Jul-13 10:01 206 3 gusting 14 25.6
2020-Jul-13 09:52 241 9 gusting 14 25.6
2020-Jul-13 09:43 230 6 gusting 9 25.6
2020-Jul-13 09:34 251 6 gusting 13 25.6
2020-Jul-13 09:25 231 5 gusting 13 25.6
2020-Jul-13 09:16 215 9 gusting 13 25.6
2020-Jul-13 09:07 180 6 gusting 7 26.1
2020-Jul-13 08:58 224 6 gusting 7 26.1
2020-Jul-13 08:49 201 4 gusting 6 26.1
2020-Jul-13 08:40 193 3 gusting 6 26.7
2020-Jul-13 08:31 157 3 gusting 4 26.7
2020-Jul-13 08:22 180 3 gusting 6 27.2
2020-Jul-13 08:13 180 3 gusting 6 27.2
2020-Jul-13 08:04 181 2 gusting 4 26.7
2020-Jul-13 07:55 181 2 gusting 4 26.7
2020-Jul-13 07:46 223 2 gusting 4 26.7
2020-Jul-13 07:37 180 1 gusting 3 25.6
2020-Jul-13 07:28 180 1 gusting 3 25.6
2020-Jul-13 07:19 090 2 gusting 4 24.4
2020-Jul-13 07:10 090 2 gusting 4 24.4
2020-Jul-13 07:01 090 2 gusting 6 24.4
2020-Jul-13 06:52 089 4 gusting 6 24.4
2020-Jul-13 06:43 045 4 gusting 6 24.4
2020-Jul-13 06:34 053 1 gusting 4 23.9
2020-Jul-13 06:25 051 2 gusting 4 22.8
2020-Jul-13 06:16 090 2 gusting 4 22.8
2020-Jul-13 06:07 047 1 gusting 4 22.8
2020-Jul-13 05:58 058 1 gusting 4 22.8
2020-Jul-13 05:49 053 3 gusting 6 22.8
2020-Jul-13 05:40 032 3 gusting 6 22.2
2020-Jul-13 05:31 079 5 gusting 8 21.7
2020-Jul-13 05:22 060 6 gusting 8 21.7
2020-Jul-13 05:13 066 6 gusting 9 21.1
2020-Jul-13 05:04 054 5 gusting 9 20.6
2020-Jul-13 04:55 086 4 gusting 6 20.6
2020-Jul-13 04:46 082 3 gusting 8 20.6
2020-Jul-13 04:37 045 6 gusting 8 20.0
2020-Jul-13 04:28 067 6 gusting 9 20.6
2020-Jul-13 04:19 067 6 gusting 9 20.6
2020-Jul-13 04:10 085 6 gusting 9 20.6
2020-Jul-13 04:01 083 7 gusting 11 20.6
2020-Jul-13 03:52 067 7 gusting 10 20.6
2020-Jul-13 03:43 050 4 gusting 12 20.6
2020-Jul-13 03:34 085 6 gusting 13 20.6
2020-Jul-13 03:25 045 5 gusting 6 20.6
2020-Jul-13 03:16 045 8 gusting 12 21.1
2020-Jul-13 03:07 045 8 gusting 12 21.1
2020-Jul-13 02:58 052 6 gusting 10 21.1
2020-Jul-13 02:49 078 6 gusting 10 21.1
2020-Jul-13 02:40 063 4 gusting 8 21.1
2020-Jul-13 02:31 068 6 gusting 8 21.1
2020-Jul-13 02:22 078 6 gusting 8 21.1
2020-Jul-13 02:13 090 6 gusting 8 21.1
2020-Jul-13 02:04 -0.0
2020-Jul-13 01:55 -0.0
2020-Jul-13 01:46 -0.0
2020-Jul-13 01:37 -0.0
2020-Jul-13 01:28 -0.0
2020-Jul-13 01:19 -0.0
2020-Jul-13 01:10 -0.0
2020-Jul-13 00:51 063 6 gusting 12 21.1
2020-Jul-13 00:42 076 9 gusting 11 21.1
2020-Jul-13 00:33 090 8 gusting 9 21.1
2020-Jul-13 00:24 135 1 gusting 5 22.2
2020-Jul-13 00:15 135 1 gusting 5 22.2
2020-Jul-13 00:06 135 1 gusting 5 22.2
2020-Jul-12 23:57 135 1 gusting 5 22.2
2020-Jul-12 23:48 135 1 gusting 5 22.2
2020-Jul-12 23:40 135 1 gusting 5 22.2
2020-Jul-12 23:30 135 1 gusting 5 22.2
2020-Jul-12 23:21 135 1 gusting 5 22.2
2020-Jul-12 23:12 135 1 gusting 5 22.2
2020-Jul-12 23:03 135 1 gusting 5 22.2
2020-Jul-12 22:54 135 1 gusting 5 22.2
2020-Jul-12 22:45 135 1 gusting 5 22.2
2020-Jul-12 22:36 135 1 gusting 5 22.2
2020-Jul-12 22:27 128 1 gusting 6 22.2
2020-Jul-12 22:18 082 2 gusting 6 22.2
2020-Jul-12 22:09 100 3 gusting 7 22.2
2020-Jul-12 22:00 063 3 gusting 8 22.8
2020-Jul-12 21:51 049 3 gusting 9 22.8
2020-Jul-12 21:42 079 3 gusting 6 22.2
2020-Jul-12 21:33 063 5 gusting 9 22.2
2020-Jul-12 21:24 045 4 gusting 6 22.8
2020-Jul-12 21:15 025 3 gusting 6 22.8
2020-Jul-12 21:06 045 4 gusting 6 22.8
2020-Jul-12 20:57 050 4 gusting 7 22.8
2020-Jul-12 20:48 066 5 gusting 13 22.8
2020-Jul-12 20:39 058 7 gusting 13 23.3
2020-Jul-12 20:30 072 6 gusting 10 23.3
2020-Jul-12 20:21 076 6 gusting 11 23.3
2020-Jul-12 20:12 097 6 gusting 11 23.3
2020-Jul-12 20:03 107 3 gusting 10 23.3
2020-Jul-12 19:54 061 6 gusting 10 23.3
2020-Jul-12 19:45 056 3 gusting 6 23.9
2020-Jul-12 19:36 061 6 gusting 9 24.4
2020-Jul-12 19:27 064 5 gusting 9 24.4
2020-Jul-12 19:18 041 3 gusting 7 25.0
2020-Jul-12 19:09 072 1 gusting 7 25.6
2020-Jul-12 19:00 093 4 gusting 6 26.7
2020-Jul-12 18:51 352 3 gusting 10 26.7
2020-Jul-12 18:42 087 2 gusting 18 27.2
2020-Jul-12 18:33 069 9 gusting 18 27.8
2020-Jul-12 18:24 075 6 gusting 11 28.3
2020-Jul-12 18:15 060 4 gusting 6 28.3
2020-Jul-12 18:06 014 3 gusting 7 28.9
2020-Jul-12 17:57 061 5 gusting 9 28.9
2020-Jul-12 17:48 027 6 gusting 10 29.4
2020-Jul-12 17:39 050 5 gusting 9 30.0
2020-Jul-12 17:31 028 3 gusting 13 30.6
2020-Jul-12 17:12 061 1 gusting 7 31.7
2020-Jul-12 17:03 053 3 gusting 11 32.2
2020-Jul-12 16:55 079 6 gusting 11 32.8
2020-Jul-12 16:45 076 3 gusting 8 32.8
2020-Jul-12 16:36 048 4 gusting 7 32.8
2020-Jul-12 16:27 277 1 gusting 8 32.8
2020-Jul-12 16:18 007 1 gusting 8 32.2
2020-Jul-12 16:09 005 0 gusting 10 32.2
2020-Jul-12 16:01 258 6 gusting 12 32.8
2020-Jul-12 15:51 256 7 gusting 12 33.9
2020-Jul-12 15:42 322 3 gusting 10 33.9
2020-Jul-12 15:33 046 6 gusting 10 35.0
2020-Jul-12 15:24 059 3 gusting 5 33.9
2020-Jul-12 15:15 035 0 gusting 6 33.3
2020-Jul-12 15:07 024 2 gusting 7 33.3
2020-Jul-12 14:57 052 1 gusting 8 33.3
2020-Jul-12 14:48 278 1 gusting 8 32.8
2020-Jul-12 14:39 302 1 gusting 6 32.2
2020-Jul-12 14:30 261 3 gusting 9 32.2
2020-Jul-12 14:22 242 5 gusting 8 31.7
2020-Jul-12 13:37 313 6 gusting 7 30.0
2020-Jul-12 13:09 229 6 gusting 13 29.4
2020-Jul-12 13:01 220 8 gusting 14 29.4
2020-Jul-12 12:42 232 5 gusting 13 29.4
2020-Jul-12 12:33 247 11 gusting 13 30.0
2020-Jul-12 12:24 090 3 gusting 6 29.4
2020-Jul-12 11:57 098 3 gusting 6 29.4
2020-Jul-12 11:48 217 3 gusting 12 30.0
2020-Jul-12 11:39 217 2 gusting 8 30.0
2020-Jul-12 11:30 186 6 gusting 7 29.4
2020-Jul-12 11:21 246 1 gusting 9 28.9
2020-Jul-12 11:12 240 3 gusting 10 28.3
2020-Jul-12 11:03 236 5 gusting 11 28.3
2020-Jul-12 10:54 259 6 gusting 11 28.3
2020-Jul-12 10:45 240 3 gusting 12 28.3
2020-Jul-12 10:36 234 7 gusting 12 28.9
2020-Jul-12 10:27 249 6 gusting 10 28.9
2020-Jul-12 10:18 246 5 gusting 10 28.9
2020-Jul-12 10:09 206 6 gusting 10 29.4
2020-Jul-12 10:00 224 3 gusting 13 30.6
2020-Jul-12 09:51 281 3 gusting 6 30.6
2020-Jul-12 09:42 283 1 gusting 6 30.6
2020-Jul-12 09:33 049 2 gusting 5 30.0
2020-Jul-12 09:24 054 1 gusting 8 30.0
2020-Jul-12 09:15 035 5 gusting 8 29.4
2020-Jul-12 09:06 048 1 gusting 6 29.4
2020-Jul-12 08:57 060 3 gusting 8 29.4
2020-Jul-12 08:48 055 1 gusting 6 28.9
2020-Jul-12 08:39 088 2 gusting 8 28.9
2020-Jul-12 08:30 016 3 gusting 11 28.9
2020-Jul-12 08:21 068 3 gusting 7 28.9
2020-Jul-12 08:12 092 6 gusting 7 28.9
2020-Jul-12 08:03 100 1 gusting 3 27.8
2020-Jul-12 07:54 061 2 gusting 5 27.8
2020-Jul-12 07:45 078 1 gusting 4 26.7
2020-Jul-12 07:36 260 1 gusting 9 26.7
2020-Jul-12 07:27 054 3 gusting 10 26.1
2020-Jul-12 07:18 028 3 gusting 9 26.7
2020-Jul-12 07:09 039 2 gusting 6 26.7
2020-Jul-12 07:00 035 1 gusting 6 26.1
2020-Jul-12 06:51 035 3 gusting 7 26.1
2020-Jul-12 06:42 112 1 gusting 6 25.6
2020-Jul-12 06:33 119 2 gusting 9 25.0
2020-Jul-12 06:24 088 2 gusting 6 25.0
2020-Jul-12 06:15 166 2 gusting 6 24.4
2020-Jul-12 06:06 137 3 gusting 6 23.9
2020-Jul-12 05:57 076 5 gusting 6 23.9
2020-Jul-12 05:48 079 2 gusting 6 23.9
2020-Jul-12 05:39 154 3 gusting 6 22.8
2020-Jul-12 05:30 096 3 gusting 6 22.8
2020-Jul-12 05:21 046 3 gusting 6 22.2
2020-Jul-12 05:12 122 3 gusting 6 22.2
2020-Jul-12 05:03 103 1 gusting 6 21.7